COSMOS 2278 (23087 NORAD) Tracking and Keplerian Element Data

This shows tracking and keplerian element data for the satellite.

Feedback or suggestion? Click here.




ElementValue
Catalog23087
NameCOSMOS 2278
Epoch Orbit27205
Epoch Day351.90354304
Epoch Year2018
RAAN292.115
Inclination71.0532
Eccentricity0.000636
Argument of Perigee101.783
Mean Anonmoly258.4006
Mean Motion14.13774275
Decay Rate-2.83E-06
L11 23087U 94023A 18351.90354304 -.00000283 00000-0 -12475-3 0 9991
L22 23087 71.0532 292.1150 0006360 101.7830 258.4006 14.13774275272057

Live tracking and technical data element details for COSMOS 2278 (NORAD 23087). COSMOS 2278 can be tracked NOW for your location showing map with azimuth and elevation plus other details from your city location.

Track the satellite on the map from your city or location and see movement details for azimuth, elevation, latitude, longitude, range, height, and movement on the map or in text.







IsCatalogInMostPopularTable: catalog: 23087, numindb: 43
Update: records affected: 1



GetName: 23087 COSMOS 2278

Hit Count: updated at: Tue, 18 Dec 2018 21:25:03 GMT